Overview Statistics Trail Chart Weather Telemetry Raw packets
 

This is the latest recevied weather packets stored in our database for station/object KF0RZX-13. If no packets are shown the sender has not sent any weather packets the latest 10 day(s).

<< 12 13 14 15 16 17 18 >>
Time Temp. Humidity Pressure Rain* Wind** Luminosity Snow
1787737156 17.78° C 83% 1025.7 hPa 0 mm - - -
1787735351 17.22° C 94% 1025.4 hPa 2.03 mm - - -
1787733546 17.22° C 94% 1027.8 hPa 0.25 mm - - -
1787731742 17.78° C 83% 1027.4 hPa 0 mm - - -
1787729936 17.22° C 88% 1026.1 hPa 0 mm - - -
1787728132 17.22° C 88% 1026.1 hPa 0 mm - - -
1787726326 17.78° C 77% 1026.1 hPa 0 mm - - -
1787724521 17.78° C 83% 1026.1 hPa 1.02 mm - - -
1787722716 17.78° C 77% 1026.4 hPa 0 mm - - -
1787720915 17.78° C 77% 1026.4 hPa 0 mm - - -
1787719109 17.22° C 88% 1026.1 hPa 0 mm - - -
1787717305 17.78° C 83% 1025.7 hPa 0 mm - - -
1787715486 18.89° C 68% 1025.7 hPa 0 mm - - -
1787713681 20° C 68% 1025.1 hPa 0 mm - - -
1787711876 20° C 64% 1025.1 hPa 0 mm - - -
1787710071 20° C 64% 1025.1 hPa 0 mm - - -
1787708266 22.22° C 69% 1026.1 hPa 0 mm - - -
1787706461 22.78° C 61% 1025.1 hPa 0 mm - - -
1787704656 22.78° C 61% 1025.1 hPa 0 mm - - -
1787702851 22.22° C 65% 1025.4 hPa 6.1 mm - - -
1787701046 22.22° C 60% 1025.1 hPa 2.03 mm - - -
1787699241 23.89° C 57% 1025.1 hPa 0 mm - - -
1787697436 28.89° C 31% 1024.4 hPa 0 mm - - -
1787695631 30° C 29% 1024.4 hPa 0 mm - - -
1787693826 31.11° C 27% 1024.7 hPa 0 mm - - -

* Rain latest hour (hover to see other rain measurements)
** Current wind speed in m/s (hover to see current wind gust speed)